CZ-4B DEB

基本信息
目录编号:
38326
目录名称:
CZ-4B DEB
国际标识:
2010-051H
轨道中心:
EARTH
物体状态:
在轨
发射日期:
2010-10-06 UTC
轨道信息
数据来源: 国际轨道数据
星历时间: 2026-09-13T22:35:22+0800
半长轴: 6987.4km
偏心率: 0.0106544
轨道倾角: 97.686°
近地点辐角: 311.140°
升交点赤经: 311.645°
平近点角: 48.066°
近地点: 534.816km
远地点: 683.71km
周期: 96.880分钟
每日圈数: 14.863786
详细信息
发射场:
TSC
轨道高度:
LEO
数据来源:
AOE Integration Group
参考系:
TEME
时间系统:
UTC
历元类型:
SGP4
2D轨道图
3D轨道图
轨道高度分析图
轨道倾角分析图
轨道综合分析图
查看轨道综合分析图